THY1YS LTFM-LTAC

Flight info

Callsign THY1YS
Flight time 0h 52m
Altitude 29000
Route VICEN1E/36 VICEN T380 ASMAP UL333 LATGA
Aircraft A321/M-SDE3FGHIRWY/LB1

Departure

Time 2026-05-05 18:22
Airport İstanbul Airport (LTFM)

Arrival

Time 2026-05-05 19:14
Airport Esenboğa International Airport (LTAC)
Time Latitude Longitude Altitude Speed Heading
2026-05-05 17:53 41.25275 28.74900 334 ft 0 kts 269°
2026-05-05 18:09 41.25276 28.74928 330 ft 4 kts 269°
2026-05-05 18:09 41.25276 28.74955 330 ft 4 kts 295°
2026-05-05 18:09 41.25261 28.74970 329 ft 3 kts 358°
2026-05-05 18:09 41.25240 28.74971 330 ft 0 kts 359°
2026-05-05 18:16 41.25251 28.74970 330 ft 2 kts 359°
2026-05-05 18:16 41.25272 28.74972 329 ft 3 kts 16°
2026-05-05 18:16 41.25278 28.74998 332 ft 4 kts 83°
2026-05-05 18:16 41.25282 28.75038 334 ft 5 kts 83°
2026-05-05 18:17 41.25283 28.75093 334 ft 7 kts 89°
2026-05-05 18:17 41.25284 28.75164 334 ft 8 kts 90°
2026-05-05 18:17 41.25283 28.75218 334 ft 9 kts 91°
2026-05-05 18:17 41.25306 28.75298 333 ft 10 kts 31°
2026-05-05 18:18 41.25364 28.75331 333 ft 9 kts 60°
2026-05-05 18:18 41.25391 28.75402 334 ft 9 kts 31°
2026-05-05 18:18 41.25456 28.75409 330 ft 10 kts 358°
2026-05-05 18:18 41.25532 28.75408 330 ft 12 kts
2026-05-05 18:19 41.25617 28.75405 331 ft 13 kts 359°
2026-05-05 18:19 41.25712 28.75403 331 ft 14 kts 359°
2026-05-05 18:19 41.25815 28.75402 333 ft 16 kts 360°
2026-05-05 18:19 41.25927 28.75397 332 ft 17 kts 358°
2026-05-05 18:20 41.26048 28.75395 333 ft 18 kts 359°
2026-05-05 18:20 41.26164 28.75392 332 ft 12 kts 359°
2026-05-05 18:20 41.26239 28.75422 330 ft 12 kts 59°
2026-05-05 18:20 41.26249 28.75525 334 ft 8 kts 89°
2026-05-05 18:21 41.26250 28.75606 334 ft 10 kts 89°
2026-05-05 18:21 41.26285 28.75666 331 ft 9 kts
2026-05-05 18:21 41.26355 28.75667 332 ft 11 kts 359°
2026-05-05 18:21 41.26523 28.75666 332 ft 53 kts 360°
2026-05-05 18:22 41.27148 28.75653 332 ft 124 kts 360°
2026-05-05 18:22 41.28194 28.75630 477 ft 165 kts 359°
2026-05-05 18:22 41.29325 28.75594 1302 ft 161 kts
2026-05-05 18:22 41.30402 28.75955 1885 ft 166 kts 31°
2026-05-05 18:23 41.31327 28.76935 2094 ft 177 kts 39°
2026-05-05 18:23 41.32324 28.78048 2403 ft 197 kts 35°
2026-05-05 18:23 41.33541 28.79091 2612 ft 220 kts 29°
2026-05-05 18:23 41.34947 28.80140 2983 ft 239 kts 27°
2026-05-05 18:24 41.36410 28.81200 3838 ft 239 kts 27°
2026-05-05 18:24 41.37738 28.82527 4680 ft 245 kts 49°
2026-05-05 18:24 41.38390 28.84674 5317 ft 263 kts 81°
2026-05-05 18:24 41.38460 28.87143 6027 ft 270 kts 85°
2026-05-05 18:25 41.38453 28.89663 6774 ft 275 kts 91°
2026-05-05 18:25 41.38160 28.91323 7229 ft 284 kts 110°
2026-05-05 18:25 41.36406 28.94002 8156 ft 299 kts 149°
2026-05-05 18:25 41.34403 28.94777 8845 ft 306 kts 177°
2026-05-05 18:26 41.32263 28.94846 9559 ft 309 kts 179°
2026-05-05 18:26 41.30097 28.94870 10205 ft 316 kts 180°
2026-05-05 18:26 41.27816 28.94881 10378 ft 339 kts 180°
2026-05-05 18:26 41.25374 28.94888 10498 ft 362 kts 180°
2026-05-05 18:27 41.22787 28.94782 10643 ft 382 kts 183°
2026-05-05 18:27 41.20097 28.94547 11059 ft 391 kts 185°
2026-05-05 18:27 41.17371 28.94250 11637 ft 395 kts 185°
2026-05-05 18:27 41.14658 28.93943 12228 ft 398 kts 185°
2026-05-05 18:28 41.09086 28.93352 13438 ft 405 kts 184°
2026-05-05 18:28 41.06263 28.93307 14011 ft 408 kts 174°
2026-05-05 18:28 41.03463 28.93994 14550 ft 410 kts 162°
2026-05-05 18:29 41.00823 28.95402 15117 ft 410 kts 150°
2026-05-05 18:29 40.98436 28.97460 15675 ft 410 kts 139°
2026-05-05 18:29 40.96353 29.00027 16217 ft 410 kts 133°
2026-05-05 18:29 40.94313 29.02688 16749 ft 412 kts 134°
2026-05-05 18:30 40.92262 29.05355 17281 ft 415 kts 134°
2026-05-05 18:30 40.90202 29.08029 17806 ft 417 kts 134°
2026-05-05 18:30 40.88127 29.10719 18306 ft 419 kts 134°
2026-05-05 18:30 40.86174 29.13587 18732 ft 420 kts 126°
2026-05-05 18:31 40.84603 29.16834 19153 ft 421 kts 116°
2026-05-05 18:31 40.83463 29.20391 19569 ft 421 kts 106°
2026-05-05 18:31 40.82694 29.24125 19996 ft 423 kts 103°
2026-05-05 18:31 40.81956 29.27890 20434 ft 425 kts 103°
2026-05-05 18:32 40.81211 29.31679 20871 ft 427 kts 103°
2026-05-05 18:32 40.80459 29.35484 21299 ft 430 kts 103°
2026-05-05 18:32 40.79697 29.39305 21724 ft 432 kts 103°
2026-05-05 18:32 40.78930 29.43150 22145 ft 434 kts 103°
2026-05-05 18:33 40.78158 29.47013 22566 ft 436 kts 103°
2026-05-05 18:33 40.77384 29.50887 22969 ft 439 kts 103°
2026-05-05 18:33 40.76601 29.54795 23392 ft 440 kts 103°
2026-05-05 18:33 40.75811 29.58711 23770 ft 443 kts 103°
2026-05-05 18:34 40.75017 29.62638 24106 ft 445 kts 103°
2026-05-05 18:34 40.74218 29.66592 24447 ft 447 kts 103°
2026-05-05 18:34 40.73566 29.70592 24763 ft 447 kts 96°
2026-05-05 18:34 40.73364 29.74617 25079 ft 447 kts 89°
2026-05-05 18:35 40.73310 29.78738 25399 ft 450 kts 89°
2026-05-05 18:35 40.73246 29.82864 25720 ft 452 kts 89°
2026-05-05 18:35 40.73174 29.87013 26031 ft 454 kts 89°
2026-05-05 18:35 40.73094 29.91184 26333 ft 456 kts 89°
2026-05-05 18:36 40.73012 29.95370 26617 ft 458 kts 89°
2026-05-05 18:36 40.72926 29.99574 26914 ft 460 kts 89°
2026-05-05 18:36 40.72803 30.03799 27174 ft 463 kts 93°
2026-05-05 18:36 40.72290 30.08001 27409 ft 467 kts 102°
2026-05-05 18:37 40.71316 30.12100 27642 ft 471 kts 107°
2026-05-05 18:37 40.70226 30.16172 27964 ft 470 kts 107°
2026-05-05 18:37 40.69152 30.20237 28332 ft 469 kts 107°
2026-05-05 18:37 40.68084 30.24299 28695 ft 469 kts 107°
2026-05-05 18:38 40.67042 30.28363 29017 ft 468 kts 104°
2026-05-05 18:38 40.66361 30.32507 29088 ft 459 kts 95°
2026-05-05 18:38 40.65706 30.40785 29087 ft 453 kts 93°
2026-05-05 18:39 40.65025 30.49030 29091 ft 453 kts 94°
2026-05-05 18:39 40.64319 30.57279 29087 ft 454 kts 94°
2026-05-05 18:40 40.63609 30.65536 29090 ft 454 kts 94°
2026-05-05 18:40 40.62602 30.73747 29093 ft 457 kts 103°
2026-05-05 18:41 40.60899 30.81815 29090 ft 458 kts 103°
2026-05-05 18:41 40.59184 30.89878 29084 ft 458 kts 103°
2026-05-05 18:42 40.57473 30.97944 29084 ft 458 kts 103°
2026-05-05 18:42 40.55747 31.06014 29087 ft 459 kts 103°
2026-05-05 18:43 40.54018 31.14082 29074 ft 458 kts 103°
2026-05-05 18:43 40.52291 31.22151 29075 ft 459 kts 103°
2026-05-05 18:44 40.50545 31.30233 29067 ft 460 kts 103°
2026-05-05 18:44 40.48795 31.38327 28990 ft 461 kts 103°
2026-05-05 18:45 40.47911 31.42376 28729 ft 461 kts 103°
2026-05-05 18:45 40.47018 31.46421 28451 ft 462 kts 105°
2026-05-05 18:45 40.45819 31.50347 28177 ft 465 kts 114°
2026-05-05 18:45 40.44340 31.54127 27915 ft 466 kts 115°
2026-05-05 18:46 40.42860 31.57906 27511 ft 463 kts 115°
2026-05-05 18:46 40.41394 31.61648 26821 ft 459 kts 115°
2026-05-05 18:46 40.39941 31.65359 26155 ft 455 kts 115°
2026-05-05 18:46 40.38518 31.68992 25474 ft 452 kts 115°
2026-05-05 18:47 40.37086 31.72647 24775 ft 449 kts 115°
2026-05-05 18:47 40.35641 31.76331 23960 ft 449 kts 115°
2026-05-05 18:47 40.34205 31.79985 22949 ft 452 kts 115°
2026-05-05 18:47 40.32770 31.83626 22201 ft 447 kts 115°
2026-05-05 18:48 40.31351 31.87228 21414 ft 443 kts 115°
2026-05-05 18:48 40.29945 31.90797 20628 ft 435 kts 115°
2026-05-05 18:48 40.28589 31.94219 19903 ft 413 kts 116°
2026-05-05 18:48 40.27273 31.97535 19194 ft 418 kts 116°
2026-05-05 18:49 40.25931 32.00915 18477 ft 417 kts 116°
2026-05-05 18:49 40.24601 32.04272 17698 ft 414 kts 116°
2026-05-05 18:49 40.23285 32.07593 16976 ft 409 kts 116°
2026-05-05 18:49 40.21973 32.10903 16263 ft 409 kts 116°
2026-05-05 18:50 40.20665 32.14194 15560 ft 406 kts 116°
2026-05-05 18:50 40.19362 32.17453 14875 ft 402 kts 116°
2026-05-05 18:50 40.18068 32.20679 14206 ft 399 kts 117°
2026-05-05 18:50 40.16788 32.23881 13529 ft 396 kts 117°
2026-05-05 18:51 40.15537 32.27016 12887 ft 379 kts 117°
2026-05-05 18:51 40.14319 32.30062 12312 ft 377 kts 117°
2026-05-05 18:51 40.13107 32.33089 11722 ft 374 kts 117°
2026-05-05 18:51 40.11909 32.36072 11144 ft 365 kts 117°
2026-05-05 18:52 40.10773 32.38900 10855 ft 336 kts 117°
2026-05-05 18:52 40.09737 32.41485 10657 ft 309 kts 117°
2026-05-05 18:52 40.08773 32.43884 10411 ft 288 kts 118°
2026-05-05 18:52 40.07856 32.46159 10176 ft 284 kts 118°
2026-05-05 18:53 40.06932 32.48448 9904 ft 286 kts 118°
2026-05-05 18:53 40.05989 32.50782 9283 ft 293 kts 118°
2026-05-05 18:53 40.05047 32.53116 9005 ft 283 kts 118°
2026-05-05 18:53 40.04157 32.55324 8725 ft 268 kts 117°
2026-05-05 18:54 40.03311 32.57420 8281 ft 254 kts 117°
2026-05-05 18:54 40.02507 32.59406 7849 ft 242 kts 117°
2026-05-05 18:54 40.01735 32.61310 7421 ft 233 kts 117°
2026-05-05 18:54 40.00986 32.63156 7011 ft 230 kts 117°
2026-05-05 18:55 40.00234 32.65010 6582 ft 232 kts 117°
2026-05-05 18:55 39.99477 32.66880 6162 ft 234 kts 117°
2026-05-05 18:55 39.98715 32.68764 5752 ft 234 kts 117°
2026-05-05 18:55 39.97987 32.70584 5602 ft 226 kts 114°
2026-05-05 18:56 39.97487 32.72507 5600 ft 224 kts 101°
2026-05-05 18:56 39.97322 32.74510 5604 ft 222 kts 88°
2026-05-05 18:56 39.97443 32.76510 5607 ft 221 kts 83°
2026-05-05 18:56 39.97591 32.78508 5607 ft 221 kts 83°
2026-05-05 18:57 39.97733 32.80507 5606 ft 222 kts 83°
2026-05-05 18:57 39.97873 32.82499 5605 ft 216 kts 83°
2026-05-05 18:57 39.98053 32.84379 5605 ft 204 kts 72°
2026-05-05 18:57 39.98665 32.85997 5620 ft 198 kts 50°
2026-05-05 18:58 39.99657 32.87156 5607 ft 183 kts 33°
2026-05-05 18:58 40.00667 32.88104 5633 ft 176 kts 33°
2026-05-05 18:58 40.01647 32.89034 5612 ft 172 kts 34°
2026-05-05 18:58 40.02585 32.89926 5602 ft 160 kts 33°
2026-05-05 18:59 40.03468 32.90767 5602 ft 155 kts 34°
2026-05-05 18:59 40.04331 32.91589 5583 ft 153 kts 34°
2026-05-05 18:59 40.05187 32.92404 5592 ft 152 kts 34°
2026-05-05 18:59 40.06055 32.93229 5873 ft 154 kts 34°
2026-05-05 19:00 40.06910 32.94042 6370 ft 151 kts 34°
2026-05-05 19:00 40.07758 32.94847 6786 ft 151 kts 34°
2026-05-05 19:00 40.08619 32.95665 6992 ft 154 kts 34°
2026-05-05 19:00 40.09482 32.96487 7005 ft 153 kts 34°
2026-05-05 19:01 40.10364 32.97325 6990 ft 165 kts 34°
2026-05-05 19:01 40.11059 32.98477 6985 ft 166 kts 73°
2026-05-05 19:01 40.11012 32.99984 7023 ft 170 kts 102°
2026-05-05 19:01 40.10638 33.01457 7021 ft 172 kts 110°
2026-05-05 19:02 40.10167 33.02890 7008 ft 172 kts 112°
2026-05-05 19:02 40.09681 33.04315 7009 ft 172 kts 112°
2026-05-05 19:02 40.09192 33.05741 7008 ft 172 kts 112°
2026-05-05 19:02 40.08643 33.07129 6997 ft 174 kts 130°
2026-05-05 19:03 40.07723 33.08145 7024 ft 175 kts 146°
2026-05-05 19:03 40.06692 33.08985 7005 ft 175 kts 149°
2026-05-05 19:03 40.05645 33.09792 7008 ft 175 kts 149°
2026-05-05 19:03 40.04514 33.10315 7003 ft 173 kts 178°
2026-05-05 19:04 40.03310 33.10214 6999 ft 174 kts 191°
2026-05-05 19:04 40.02151 33.09768 7009 ft 174 kts 202°
2026-05-05 19:04 40.01417 33.09359 6996 ft 172 kts 210°
2026-05-05 19:04 40.00369 33.08600 7000 ft 172 kts 216°
2026-05-05 19:05 39.99388 33.07702 7021 ft 172 kts 220°
2026-05-05 19:05 39.98447 33.06745 6997 ft 171 kts 220°
2026-05-05 19:05 39.97523 33.05776 7004 ft 171 kts 221°
2026-05-05 19:05 39.96599 33.04803 7003 ft 171 kts 222°
2026-05-05 19:06 39.95674 33.03833 7015 ft 171 kts 221°
2026-05-05 19:06 39.94749 33.02864 7001 ft 170 kts 221°
2026-05-05 19:06 39.93824 33.01895 7005 ft 171 kts 221°
2026-05-05 19:06 39.92900 33.00926 7007 ft 171 kts 221°
2026-05-05 19:07 39.91976 32.99958 7002 ft 170 kts 221°
2026-05-05 19:07 39.91221 32.98804 7006 ft 167 kts 245°
2026-05-05 19:07 39.90998 32.97361 7005 ft 163 kts 276°
2026-05-05 19:07 39.91214 32.95922 7007 ft 162 kts 290°
2026-05-05 19:08 39.91611 32.94573 6874 ft 157 kts 294°
2026-05-05 19:08 39.92042 32.93261 6552 ft 158 kts 295°
2026-05-05 19:08 39.92482 32.91947 6261 ft 158 kts 295°
2026-05-05 19:08 39.92923 32.90636 5979 ft 157 kts 295°
2026-05-05 19:09 39.93490 32.89452 5741 ft 151 kts 318°
2026-05-05 19:09 39.94353 32.88710 5654 ft 148 kts 328°
2026-05-05 19:09 39.95221 32.88010 5605 ft 146 kts 328°
2026-05-05 19:09 39.96088 32.87310 5603 ft 146 kts 328°
2026-05-05 19:10 39.96942 32.86625 5607 ft 146 kts 329°
2026-05-05 19:10 39.97913 32.86249 5604 ft 148 kts 356°
2026-05-05 19:10 39.98918 32.86512 5605 ft 150 kts 24°
2026-05-05 19:10 39.99785 32.87279 5615 ft 151 kts 33°
2026-05-05 19:11 40.00636 32.88087 5608 ft 151 kts 34°
2026-05-05 19:11 40.01489 32.88895 5513 ft 152 kts 34°
2026-05-05 19:11 40.02339 32.89701 5370 ft 151 kts 33°
2026-05-05 19:11 40.03187 32.90506 5183 ft 151 kts 33°
2026-05-05 19:12 40.04044 32.91323 5104 ft 157 kts 34°
2026-05-05 19:12 40.04975 32.92225 4969 ft 165 kts 34°
2026-05-05 19:12 40.05908 32.93073 4805 ft 164 kts 32°
2026-05-05 19:12 40.06844 32.93937 4508 ft 165 kts 36°
2026-05-05 19:13 40.07752 32.94831 4229 ft 163 kts 33°
2026-05-05 19:13 40.08689 32.95712 3883 ft 166 kts 36°
2026-05-05 19:13 40.09587 32.96576 3632 ft 155 kts 35°
2026-05-05 19:13 40.10459 32.97405 3415 ft 153 kts 35°
2026-05-05 19:14 40.11310 32.98229 3205 ft 151 kts 33°
2026-05-05 19:14 40.12115 32.98988 3136 ft 129 kts 35°
2026-05-05 19:14 40.12707 32.99550 3136 ft 77 kts 37°
2026-05-05 19:14 40.12941 32.99784 3135 ft 31 kts 43°
2026-05-05 19:15 40.13052 32.99990 3134 ft 26 kts 64°
2026-05-05 19:15 40.13098 33.00146 3134 ft 15 kts 80°
2026-05-05 19:15 40.13043 33.00186 3134 ft 10 kts 205°
2026-05-05 19:15 40.12993 33.00139 3134 ft 8 kts 217°
2026-05-05 19:16 40.12957 33.00105 3134 ft 5 kts 215°
2026-05-05 19:16 40.12929 33.00077 3134 ft 7 kts 217°
2026-05-05 19:16 40.12870 33.00020 3134 ft 13 kts 216°
2026-05-05 19:16 40.12784 32.99939 3134 ft 17 kts 216°
2026-05-05 19:17 40.12676 32.99836 3135 ft 21 kts 215°
2026-05-05 19:17 40.12556 32.99720 3134 ft 22 kts 216°
2026-05-05 19:17 40.12427 32.99596 3134 ft 24 kts 217°
2026-05-05 19:17 40.12289 32.99466 3134 ft 25 kts 215°
2026-05-05 19:18 40.12154 32.99337 3134 ft 20 kts 215°
2026-05-05 19:18 40.12038 32.99227 3134 ft 21 kts 217°
2026-05-05 19:18 40.11920 32.99114 3134 ft 18 kts 216°
2026-05-05 19:18 40.11825 32.99039 3134 ft 13 kts 184°
2026-05-05 19:19 40.11780 32.99083 3134 ft 9 kts 133°
2026-05-05 19:19 40.11722 32.99121 3134 ft 10 kts 162°
2026-05-05 19:19 40.11709 32.99124 3134 ft 2 kts 181°
2026-05-05 19:19 40.11693 32.99113 3134 ft 4 kts 211°
2026-05-05 19:20 40.11667 32.99084 3134 ft 6 kts 231°
2026-05-05 19:20 40.11639 32.99030 3134 ft 8 kts 235°
2026-05-05 19:20 40.11601 32.98972 3134 ft 8 kts 229°
2026-05-05 19:20 40.11568 32.98944 3134 ft 3 kts 169°
2026-05-05 19:21 40.11544 32.98970 3134 ft 4 kts 136°
2026-05-05 19:21 40.11524 32.98995 3134 ft 3 kts 135°
2026-05-05 19:21 40.11523 32.98996 3134 ft 0 kts 135°